• In Latvia
  • List of Countries
  • For 7 days
  • Water Temperature
  • Satellite Maps
  • Weather Map
  • Weather Widgets
  • user-avatar
    Login

    Hourly Weather Jumprava

    Today, 21 February, Wednesday

    Time Temperature Precipitation Wind Pressure Humidity
    00:00 -9°C° 0 mm 1 mps 763 mmHg 93%
    01:00 -9°C° 0 mm 1 mps 763 mmHg 93%
    02:00 -10°C° 0 mm 1 mps 763 mmHg 93%
    03:00 -10°C° 0 mm 1 mps 763 mmHg 93%
    04:00 -10°C° 0 mm 1 mps 763 mmHg 93%
    05:00 -10°C° 0 mm 1 mps 763 mmHg 93%
    06:00 -11°C° 0 mm 1 mps 763 mmHg 94%
    07:00 -11°C° 0 mm 1 mps 763 mmHg 94%
    08:00 -15°C° 0 mm 2 mps 763 mmHg 93%
    09:00 -13°C° 0 mm 2 mps 763 mmHg 90%
    10:00 -12°C° 0 mm 2 mps 763 mmHg 87%
    11:00 -9°C° 0 mm 1 mps 763 mmHg 85%
    12:00 -8°C° 0 mm 1 mps 763 mmHg 82%
    13:00 -8°C° 0 mm 1 mps 763 mmHg 79%
    14:00 -7°C° 0 mm 1 mps 763 mmHg 76%
    15:00 -7°C° 0 mm 1 mps 763 mmHg 77%
    16:00 -8°C° 0 mm 2 mps 763 mmHg 79%
    17:00 -8°C° 0 mm 2 mps 763 mmHg 80%
    18:00 -8°C° 0 mm 1 mps 763 mmHg 83%
    19:00 -9°C° 0 mm 1 mps 764 mmHg 86%
    20:00 -9°C° 0 mm 1 mps 764 mmHg 88%
    21:00 -10°C° 0 mm 1 mps 764 mmHg 89%
    22:00 -11°C° 0 mm 1 mps 765 mmHg 90%
    23:00 -12°C° 0 mm 1 mps 765 mmHg 91%

    Tomorrow, 22 February, Thursday

    Time Temperature Precipitation Wind Pressure Humidity
    00:00 -12°C° 0 mm 1 mps 765 mmHg 91%
    01:00 -13°C° 0 mm 1 mps 765 mmHg 92%
    02:00 -13°C° 0 mm 1 mps 766 mmHg 92%
    03:00 -13°C° 0 mm 1 mps 766 mmHg 92%
    04:00 -14°C° 0 mm 1 mps 766 mmHg 93%
    05:00 -14°C° 0 mm 1 mps 766 mmHg 93%
    06:00 -14°C° 0 mm 1 mps 766 mmHg 93%
    07:00 -14°C° 0 mm 1 mps 766 mmHg 93%
    08:00 -14°C° 0 mm 1 mps 766 mmHg 93%
    09:00 -13°C° 0 mm 1 mps 766 mmHg 89%
    10:00 -11°C° 0 mm 1 mps 766 mmHg 84%
    11:00 -9°C° 0 mm 1 mps 766 mmHg 79%
    12:00 -8°C° 0 mm 1 mps 766 mmHg 77%
    13:00 -8°C° 0 mm 1 mps 766 mmHg 75%
    14:00 -7°C° 0 mm 0 mps 766 mmHg 73%
    15:00 -7°C° 0 mm 0 mps 766 mmHg 75%
    16:00 -8°C° 0 mm 0 mps 766 mmHg 78%
    17:00 -8°C° 0 mm 0 mps 765 mmHg 81%
    18:00 -9°C° 0 mm 0 mps 765 mmHg 83%
    19:00 -10°C° 0 mm 0 mps 765 mmHg 86%
    20:00 -11°C° 0 mm 0 mps 765 mmHg 88%
    21:00 -11°C° 0 mm 0 mps 765 mmHg 89%
    22:00 -12°C° 0 mm 1 mps 765 mmHg 90%
    23:00 -12°C° 0 mm 1 mps 765 mmHg 92%

    Day after tomorrow, 23 February, Friday

    Time Temperature Precipitation Wind Pressure Humidity
    00:00 -13°C° 0 mm 1 mps 765 mmHg 92%
    01:00 -13°C° 0 mm 1 mps 765 mmHg 93%
    02:00 -13°C° 0 mm 1 mps 765 mmHg 93%
    03:00 -13°C° 0 mm 1 mps 765 mmHg 94%
    04:00 -13°C° 0 mm 1 mps 765 mmHg 94%
    05:00 -13°C° 0 mm 1 mps 765 mmHg 94%
    06:00 -13°C° 0 mm 1 mps 764 mmHg 94%
    07:00 -13°C° 0 mm 1 mps 764 mmHg 94%
    08:00 -13°C° 0 mm 1 mps 764 mmHg 94%
    09:00 -12°C° 0 mm 1 mps 764 mmHg 91%
    10:00 -10°C° 0 mm 1 mps 764 mmHg 87%
    11:00 -10°C° 0 mm 2 mps 764 mmHg 83%
    12:00 -9°C° 0 mm 2 mps 763 mmHg 81%
    13:00 -9°C° 0 mm 2 mps 763 mmHg 80%
    14:00 -8°C° 0 mm 2 mps 762 mmHg 78%
    15:00 -8°C° 0.1 mm 2 mps 762 mmHg 82%
    16:00 -9°C° 0.1 mm 2 mps 762 mmHg 85%
    17:00 -8°C° 0.1 mm 1 mps 762 mmHg 89%
    18:00 -8°C° 0.3 mm 1 mps 762 mmHg 91%
    19:00 -9°C° 0.3 mm 1 mps 762 mmHg 93%
    20:00 -9°C° 0.3 mm 1 mps 762 mmHg 95%
    21:00 -10°C° 0.2 mm 2 mps 763 mmHg 94%
    22:00 -12°C° 0.2 mm 2 mps 763 mmHg 93%
    23:00 -12°C° 0.2 mm 2 mps 763 mmHg 92%

    24 February, Saturday

    Time Temperature Precipitation Wind Pressure Humidity
    00:00 -14°C° 0 mm 3 mps 764 mmHg 92%
    01:00 -15°C° 0 mm 3 mps 764 mmHg 92%
    02:00 -15°C° 0 mm 3 mps 764 mmHg 92%
    03:00 -15°C° 0 mm 3 mps 765 mmHg 92%
    04:00 -15°C° 0 mm 3 mps 765 mmHg 92%
    05:00 -15°C° 0 mm 3 mps 766 mmHg 92%
    06:00 -15°C° 0 mm 3 mps 766 mmHg 91%
    07:00 -16°C° 0 mm 4 mps 767 mmHg 90%
    08:00 -16°C° 0 mm 4 mps 767 mmHg 89%
    09:00 -16°C° 0 mm 4 mps 768 mmHg 87%
    10:00 -15°C° 0 mm 4 mps 768 mmHg 84%
    11:00 -15°C° 0 mm 4 mps 769 mmHg 81%
    12:00 -14°C° 0 mm 4 mps 769 mmHg 80%
    13:00 -13°C° 0 mm 3 mps 769 mmHg 78%
    14:00 -12°C° 0 mm 3 mps 769 mmHg 76%
    15:00 -12°C° 0 mm 3 mps 769 mmHg 78%
    16:00 -13°C° 0 mm 3 mps 769 mmHg 80%
    17:00 -13°C° 0 mm 3 mps 769 mmHg 81%
    18:00 -14°C° 0 mm 3 mps 769 mmHg 85%
    19:00 -14°C° 0 mm 2 mps 770 mmHg 88%
    20:00 -15°C° 0 mm 2 mps 770 mmHg 91%
    21:00 -16°C° 0 mm 2 mps 770 mmHg 92%
    22:00 -16°C° 0 mm 2 mps 770 mmHg 93%
    23:00 -17°C° 0 mm 2 mps 770 mmHg 94%

    25 February, Sunday

    Time Temperature Precipitation Wind Pressure Humidity
    00:00 -17°C° 0 mm 2 mps 770 mmHg 95%
    01:00 -18°C° 0 mm 2 mps 770 mmHg 95%
    02:00 -19°C° 0 mm 2 mps 770 mmHg 96%
    03:00 -19°C° 0 mm 2 mps 770 mmHg 96%
    04:00 -19°C° 0 mm 2 mps 770 mmHg 96%
    05:00 -20°C° 0 mm 2 mps 770 mmHg 96%
    06:00 -20°C° 0 mm 2 mps 770 mmHg 96%
    07:00 -20°C° 0 mm 2 mps 770 mmHg 96%
    08:00 -20°C° 0 mm 2 mps 770 mmHg 95%
    09:00 -19°C° 0 mm 2 mps 770 mmHg 91%
    10:00 -17°C° 0 mm 2 mps 770 mmHg 87%
    11:00 -16°C° 0 mm 2 mps 770 mmHg 83%
    12:00 -15°C° 0 mm 2 mps 770 mmHg 81%
    13:00 -14°C° 0 mm 2 mps 770 mmHg 79%
    14:00 -13°C° 0 mm 2 mps 769 mmHg 77%
    15:00 -13°C° 0 mm 2 mps 769 mmHg 79%
    16:00 -13°C° 0 mm 2 mps 769 mmHg 80%
    17:00 -13°C° 0 mm 2 mps 769 mmHg 82%
    18:00 -14°C° 0 mm 2 mps 769 mmHg 85%
    19:00 -14°C° 0 mm 2 mps 768 mmHg 89%
    20:00 -15°C° 0 mm 2 mps 768 mmHg 92%
    21:00 -15°C° 0 mm 2 mps 768 mmHg 93%
    22:00 -13°C° 0 mm 1 mps 768 mmHg 93%
    23:00 -13°C° 0 mm 1 mps 768 mmHg 94%

    26 February, Monday

    Time Temperature Precipitation Wind Pressure Humidity
    00:00 -13°C° 0.1 mm 1 mps 768 mmHg 94%
    01:00 -15°C° 0.1 mm 2 mps 767 mmHg 95%
    02:00 -14°C° 0.1 mm 2 mps 767 mmHg 95%
    03:00 -14°C° 0.1 mm 2 mps 767 mmHg 95%
    04:00 -14°C° 0.1 mm 2 mps 766 mmHg 96%
    05:00 -14°C° 0.1 mm 2 mps 766 mmHg 96%
    06:00 -15°C° 0 mm 2 mps 765 mmHg 97%
    07:00 -15°C° 0 mm 2 mps 765 mmHg 97%
    08:00 -16°C° 0 mm 2 mps 765 mmHg 97%
    09:00 -15°C° 0 mm 2 mps 765 mmHg 92%
    10:00 -13°C° 0 mm 2 mps 765 mmHg 88%
    11:00 -12°C° 0 mm 2 mps 764 mmHg 84%
    12:00 -10°C° 0.1 mm 2 mps 764 mmHg 81%
    13:00 -10°C° 0.1 mm 2 mps 764 mmHg 78%
    14:00 -9°C° 0.1 mm 2 mps 763 mmHg 75%
    15:00 -9°C° 0.1 mm 2 mps 763 mmHg 77%
    16:00 -10°C° 0.1 mm 2 mps 763 mmHg 78%
    17:00 -10°C° 0.1 mm 2 mps 763 mmHg 80%
    18:00 -14°C° 0 mm 3 mps 763 mmHg 83%
    19:00 -15°C° 0 mm 3 mps 763 mmHg 86%
    20:00 -17°C° 0 mm 3 mps 763 mmHg 89%
    21:00 -17°C° 0 mm 2 mps 763 mmHg 90%
    22:00 -18°C° 0 mm 2 mps 763 mmHg 92%
    23:00 -19°C° 0 mm 2 mps 763 mmHg 94%
    Show more